#datint,netname,site,siteID,timestamp,airt_abovecanopy_avg,airt_avg,airt_belowcanopy_avg,dpt_f,rh,soil_vwc,soil_f,Solar_rad,winds_mph_avg,windd_deg,winds_mph_max,leafwetns,tot_10rain_mm,tot_60rain_mm,tot_dayrain_mm,leaft_1,budt_1
10min,FGNet,alpine,42.04,15JAN2021:00:00:00,23.3,22.2,21.7,10.4,57,17.25,29.6654,0,1.3,96,3.3,0,0.00,0.00,0.00,18.0032,20.3036
10min,FGNet,alpine,42.04,15JAN2021:00:10:00,22.8,21.6,21.1,10.4,59,17.23,29.7734,0,0.7,187.1,2.6,0,0.00,0.00,0.00,17.9654,20.408
10min,FGNet,alpine,42.04,15JAN2021:00:20:00,22.3,21.3,21.1,10.4,59,17.25,29.75,0,1.9,60.58,4.4,0,0.00,0.00,0.00,20.165,21.6392
10min,FGNet,alpine,42.04,15JAN2021:00:30:00,22.5,21.7,21.2,10.4,59,17.25,29.7464,0,2.4,89.4,4.4,0,0.00,0.00,0.00,17.7206,19.6196
10min,FGNet,alpine,42.04,15JAN2021:00:40:00,22.4,21.4,20.6,10.3,59,17.24,29.6834,0,2.0,50.57,3.5,0,0.00,0.00,0.00,16.916,18.4586
10min,FGNet,alpine,42.04,15JAN2021:00:50:00,22.1,20.8,20.3,10.3,60,17.24,29.8364,0,0.3,77.63,2.1,0,0.00,0.00,0.00,15.62,17.8736
10min,FGNet,alpine,42.04,15JAN2021:01:00:00,21.1,20.2,19.6,10.0,61,17.26,29.6996,0,0.3,54.46,2.3,0,0.00,0.00,0.00,16.88,18.9482
10min,FGNet,alpine,42.04,15JAN2021:01:10:00,21.3,20.7,20.2,10.1,61,17.27,29.6564,0,1.7,143.1,2.8,0,0.00,0.00,0.00,17.096,18.8366
10min,FGNet,alpine,42.04,15JAN2021:01:20:00,21.7,20.8,20.2,10.1,60,17.28,29.8184,0,1.9,91.3,3.3,0,0.00,0.00,0.00,16.25,17.6792
10min,FGNet,alpine,42.04,15JAN2021:01:30:00,21.2,19.8,19.3,10.1,62,17.27,29.6834,0,0.8,196,2.8,0,0.00,0.00,0.00,17.024,19.2542
10min,FGNet,alpine,42.04,15JAN2021:01:40:00,21.5,20.9,20.5,10.2,61,17.28,29.6816,0,2.2,112.3,4.2,0,0.00,0.00,0.00,16.952,18.7646
10min,FGNet,alpine,42.04,15JAN2021:01:50:00,21.5,20.5,20.1,9.9,60,17.29,29.6744,0,2.0,44.23,3.1,0,0.00,0.00,0.00,18.3974,20.309
10min,FGNet,alpine,42.04,15JAN2021:02:00:00,21.6,20.7,20.3,10.0,60,17.29,29.732,0,2.3,84.6,3.9,0,0.00,0.00,0.00,17.366,18.8366
10min,FGNet,alpine,42.04,15JAN2021:02:10:00,21.4,20.3,19.8,9.9,61,17.26,29.8256,0,1.1,68.92,2.3,0,0.00,0.00,0.00,15.854,17.7404
10min,FGNet,alpine,42.04,15JAN2021:02:20:00,21.0,20.0,19.5,9.9,62,17.27,29.6834,0,1.4,92.8,2.4,0,0.00,0.00,0.00,15.8,17.33
10min,FGNet,alpine,42.04,15JAN2021:02:30:00,20.6,19.5,19.1,9.8,62,17.28,29.705,0,1.2,51.83,3.5,0,0.00,0.00,0.00,18.0068,19.9346
10min,FGNet,alpine,42.04,15JAN2021:02:40:00,21.3,20.4,19.7,9.8,61,17.27,29.696,0,2.3,51.73,3.3,0,0.00,0.00,0.00,16.988,18.6422
10min,FGNet,alpine,42.04,15JAN2021:02:50:00,21.2,20.2,19.6,9.8,61,17.26,29.7734,0,1.9,45.28,3.3,0,0.00,0.00,0.00,16.862,18.6422
10min,FGNet,alpine,42.04,15JAN2021:03:00:00,21.1,20.1,19.4,9.9,62,17.22,29.687,0,2.0,97.5,3.3,0,0.00,0.00,0.00,15.71,17.8232
10min,FGNet,alpine,42.04,15JAN2021:03:10:00,20.5,18.9,18.6,9.6,62,17.23,29.7176,0,0.3,98.6,2.8,0,0.00,0.00,0.00,16.646,18.6206
10min,FGNet,alpine,42.04,15JAN2021:03:20:00,20.7,20.0,19.5,9.8,62,17.23,29.6834,0,2.4,73.51,3.3,0,0.00,0.00,0.00,16.466,17.9042
10min,FGNet,alpine,42.04,15JAN2021:03:30:00,20.8,19.4,18.9,9.7,62,17.22,29.66,0,1.8,110.5,3.3,0,0.00,0.00,0.00,16.322,18.4586
10min,FGNet,alpine,42.04,15JAN2021:03:40:00,20.1,18.8,18.2,9.7,64,17.21,29.6006,0,0.7,97.4,3.0,0,0.00,0.00,0.00,15.008,16.88
10min,FGNet,alpine,42.04,15JAN2021:03:50:00,20.1,19.6,19.1,9.9,64,17.21,29.615,0,2.1,75.9,4.6,0,0.00,0.00,0.00,15.638,17.9456
10min,FGNet,alpine,42.04,15JAN2021:04:00:00,20.3,19.1,18.8,9.9,64,17.21,29.669,0,1.3,250.5,2.8,0,0.00,0.00,0.00,14.162,16.484
10min,FGNet,alpine,42.04,15JAN2021:04:10:00,20.6,20.1,19.5,9.9,63,17.22,29.678,0,2.4,92.3,4.6,0,0.00,0.00,0.00,18.2534,19.8428
10min,FGNet,alpine,42.04,15JAN2021:04:20:00,21.0,19.6,19.1,9.8,61,17.2,29.5754,0,1.7,55.34,3.1,0,0.00,0.00,0.00,16.358,18.4172
10min,FGNet,alpine,42.04,15JAN2021:04:30:00,20.8,19.8,19.3,9.8,62,17.19,29.6006,0,2.4,84.9,3.5,0,0.00,0.00,0.00,15.548,17.6792
10min,FGNet,alpine,42.04,15JAN2021:04:40:00,20.8,19.8,19.2,9.7,62,17.2,29.6114,0,2.2,80.2,4.0,0,0.00,0.00,0.00,16.268,18.0482
10min,FGNet,alpine,42.04,15JAN2021:04:50:00,20.3,18.9,18.5,9.7,63,17.15,29.597,0,0.3,50.3,2.3,0,0.00,0.00,0.00,15.512,17.6792
10min,FGNet,alpine,42.04,15JAN2021:05:00:00,19.5,18.5,18.2,9.7,65,17.15,29.561,0,1.2,133.8,2.6,0,0.00,0.00,0.00,15.242,17.186
10min,FGNet,alpine,42.04,15JAN2021:05:10:00,19.3,18.4,18.2,9.8,66,17.15,29.6006,0,0.6,50.93,2.1,0,0.00,0.00,0.00,15.674,17.6378
10min,FGNet,alpine,42.04,15JAN2021:05:20:00,19.4,18.5,18.1,9.8,66,17.13,29.5664,0,1.5,47.08,3.0,0,0.00,0.00,0.00,15.98,17.7206
10min,FGNet,alpine,42.04,15JAN2021:05:30:00,20.6,20.0,19.5,9.9,63,17.11,29.5826,0,3.7,50.93,6.0,0,0.00,0.00,0.00,18.2732,19.904
10min,FGNet,alpine,42.04,15JAN2021:05:40:00,21.2,19.9,19.4,9.8,61,17.08,29.534,0,1.7,165.2,3.0,0,0.00,0.00,0.00,15.836,18.3974
10min,FGNet,alpine,42.04,15JAN2021:05:50:00,20.8,19.7,19.0,9.8,62,17.09,29.516,0,2.7,93.7,3.7,0,0.00,0.00,0.00,16.448,18.212
10min,FGNet,alpine,42.04,15JAN2021:06:00:00,20.3,19.3,18.6,9.8,63,17.07,29.471,0,1.5,110.4,2.4,0,0.00,0.00,0.00,17.222,18.7034
10min,FGNet,alpine,42.04,15JAN2021:06:10:00,20.3,19.1,18.6,9.7,63,17.05,29.5196,0,1.8,59.19,2.8,0,0.00,0.00,0.00,15.638,17.276
10min,FGNet,alpine,42.04,15JAN2021:06:20:00,19.7,18.4,18.0,9.6,64,17,29.462,0,0.6,50.7,1.9,0,0.00,0.00,0.00,13.892,16.304
10min,FGNet,alpine,42.04,15JAN2021:06:30:00,18.8,17.7,17.3,9.8,67,17.03,29.4656,0,1.2,183.3,3.1,0,0.00,0.00,0.00,14.108,16.034
10min,FGNet,alpine,42.04,15JAN2021:06:40:00,18.3,17.3,16.8,9.8,69,17.02,29.4404,0,0.6,241.5,1.9,0,0.00,0.00,0.00,15.494,17.42
10min,FGNet,alpine,42.04,15JAN2021:06:50:00,18.9,18.1,17.7,9.8,67,17.02,29.3774,0,0.8,51.44,3.7,0,0.00,0.00,0.00,16.664,18.0698
10min,FGNet,alpine,42.04,15JAN2021:07:00:00,19.8,18.8,18.3,9.8,65,17.01,29.453,0,2.9,47.61,4.2,0,0.00,0.00,0.00,16.502,18.0716
10min,FGNet,alpine,42.04,15JAN2021:07:10:00,19.7,19.2,18.7,9.9,65,16.97,29.471,0,2.4,54.96,3.9,0,0.00,0.00,0.00,16.52,18.257
10min,FGNet,alpine,42.04,15JAN2021:07:20:00,19.7,19.0,18.6,10.0,65,16.91,29.3846,0,0.7,76.77,2.6,0,0.00,0.00,0.00,15.026,16.736
10min,FGNet,alpine,42.04,15JAN2021:07:30:00,19.0,18.1,17.8,10.0,67,16.93,29.3774,0,0.0,127.5,0.0,0,0.00,0.00,0.00,14.234,16.736
10min,FGNet,alpine,42.04,15JAN2021:07:40:00,18.9,17.9,17.5,10.0,68,16.95,29.3396,1,0.0,126.9,0.0,0,0.00,0.00,0.00,14.054,16.358
10min,FGNet,alpine,42.04,15JAN2021:07:50:00,18.6,17.5,17.2,9.9,68,16.94,29.255,4,0.1,90.4,1.4,0,0.00,0.00,0.00,14.864,16.898
10min,FGNet,alpine,42.04,15JAN2021:08:00:00,18.4,17.8,17.3,10.0,69,16.93,29.3216,7,0.4,64.6,3.7,0,0.00,0.00,0.00,15.854,17.474
10min,FGNet,alpine,42.04,15JAN2021:08:10:00,18.8,18.3,17.7,10.1,68,16.92,29.264,10,1.1,49.02,2.8,0,0.00,0.00,0.00,15.98,17.708
10min,FGNet,alpine,42.04,15JAN2021:08:20:00,19.0,18.2,17.7,10.2,68,16.89,29.2766,13,0.0,125.8,0.0,0,0.00,0.00,0.00,15.458,16.862
10min,FGNet,alpine,42.04,15JAN2021:08:30:00,19.1,18.3,17.8,10.3,68,16.91,29.246,15,1.1,139.2,3.3,0,0.00,0.00,0.00,17.582,18.5072
10min,FGNet,alpine,42.04,15JAN2021:08:40:00,19.8,19.0,18.6,10.2,66,16.9,29.147,18,1.1,75.55,2.4,0,0.00,0.00,0.00,17.168,18.1796
10min,FGNet,alpine,42.04,15JAN2021:08:50:00,19.3,18.6,18.1,10.3,68,16.87,29.1596,21,1.4,216.3,2.8,0,0.00,0.00,0.00,18.2408,18.9572
10min,FGNet,alpine,42.04,15JAN2021:09:00:00,19.8,19.2,18.9,10.5,67,16.87,29.2226,22,1.0,33.01,3.0,0,0.00,0.00,0.00,18.2066,19.076
10min,FGNet,alpine,42.04,15JAN2021:09:10:00,19.9,19.5,19.1,10.8,67,16.87,29.1794,21,0.9,58.3,2.6,0,0.00,0.00,0.00,18.3812,19.1984
10min,FGNet,alpine,42.04,15JAN2021:09:20:00,20.7,20.5,20.1,11.1,66,16.89,29.1056,22,2.6,74.7,3.7,0,0.00,0.00,0.00,19.2758,19.6214
10min,FGNet,alpine,42.04,15JAN2021:09:30:00,21.0,21.0,20.5,11.3,66,16.88,29.1974,152,0.6,128.5,2.3,0,0.00,0.00,0.00,42.962,33.8828
10min,FGNet,alpine,42.04,15JAN2021:09:40:00,23.8,26.3,24.0,13.0,63,16.88,29.1254,256,0.4,133.8,1.7,0,0.00,0.00,0.00,54.41,36.7844
10min,FGNet,alpine,42.04,15JAN2021:09:50:00,26.5,27.2,26.7,13.0,56,16.86,29.0984,284,1.2,77.93,2.4,0,0.00,0.00,0.00,56.426,39.632
10min,FGNet,alpine,42.04,15JAN2021:10:00:00,27.9,29.0,28.7,12.6,52,16.83,29.1164,293,0.0,192.8,0.0,0,0.00,0.00,0.00,62.33,40.7426
10min,FGNet,alpine,42.04,15JAN2021:10:10:00,29.6,30.4,30.2,13.1,50,16.85,29.0084,322,1.1,136.1,2.1,0,0.00,0.00,0.00,58.46,42.719
10min,FGNet,alpine,42.04,15JAN2021:10:20:00,30.6,31.7,31.8,13.5,49,16.8,28.9994,349,0.9,150.6,2.4,0,0.00,0.00,0.00,60.152,42.7082
10min,FGNet,alpine,42.04,15JAN2021:10:30:00,32.5,33.3,33.0,13.8,46,16.83,29.003,370,2.0,208.9,4.2,0,0.00,0.00,0.00,58.19,43.3094
10min,FGNet,alpine,42.04,15JAN2021:10:40:00,31.9,32.4,32.6,12.6,44,16.79,28.9724,362,3.5,236.9,4.6,0,0.00,0.00,0.00,56.498,41.4284
10min,FGNet,alpine,42.04,15JAN2021:10:50:00,32.4,33.5,33.3,12.7,44,16.77,28.931,383,2.7,231,4.8,0,0.00,0.00,0.00,56.57,39.1802
10min,FGNet,alpine,42.04,15JAN2021:11:00:00,32.5,33.4,33.7,12.7,44,16.77,28.9526,405,2.8,266.4,3.7,0,0.00,0.00,0.00,60.224,40.7606
10min,FGNet,alpine,42.04,15JAN2021:11:10:00,33.0,34.0,34.8,12.6,42,16.76,28.9526,432,2.8,251.4,4.9,0,0.00,0.00,0.00,58.154,41.6462
10min,FGNet,alpine,42.04,15JAN2021:11:20:00,33.6,34.5,35.1,12.0,40,16.76,28.913,444,2.4,266.6,4.2,0,0.00,0.00,0.00,61.43,42.0692
10min,FGNet,alpine,42.04,15JAN2021:11:30:00,34.7,35.6,36.2,11.9,38,16.76,28.904,457,2.5,236,4.8,0,0.00,0.00,0.00,65.228,44.7512
10min,FGNet,alpine,42.04,15JAN2021:11:40:00,35.5,36.6,37.0,12.1,37,16.72,28.8734,466,3.0,229.4,4.6,0,0.00,0.00,0.00,64.472,43.5848
10min,FGNet,alpine,42.04,15JAN2021:11:50:00,35.4,36.2,36.7,11.4,36,16.71,28.886,475,3.3,269.3,4.6,0,0.00,0.00,0.00,62.438,47.696
10min,FGNet,alpine,42.04,15JAN2021:12:00:00,35.8,36.9,37.5,11.1,36,16.7,28.8356,481,2.8,279.5,4.6,0,0.00,0.00,0.00,68.486,45.1418
10min,FGNet,alpine,42.04,15JAN2021:12:10:00,36.4,37.6,38.4,11.2,35,16.72,28.895,492,2.3,242,3.9,0,0.00,0.00,0.00,70.916,50.234
10min,FGNet,alpine,42.04,15JAN2021:12:20:00,37.0,38.1,38.6,11.4,34,16.71,28.8986,490,2.6,233.4,4.2,0,0.00,0.00,0.00,71.402,49.784
10min,FGNet,alpine,42.04,15JAN2021:12:30:00,38.1,38.7,39.3,11.6,33,16.71,28.922,501,2.5,134.7,4.6,0,0.00,0.00,0.00,65.048,45.7682
10min,FGNet,alpine,42.04,15JAN2021:12:40:00,38.1,39.0,39.4,11.6,33,16.69,28.9076,493,3.2,241.4,4.9,0,0.00,0.00,0.00,58.91,46.58
10min,FGNet,alpine,42.04,15JAN2021:12:50:00,38.2,38.7,39.3,11.4,33,16.7,28.9346,449,3.5,169,5.1,0,0.00,0.00,0.00,66.416,47.858
10min,FGNet,alpine,42.04,15JAN2021:13:00:00,38.8,40.1,40.8,12.2,33,16.71,28.9706,496,3.3,189,5.3,0,0.00,0.00,0.00,64.706,48.128
10min,FGNet,alpine,42.04,15JAN2021:13:10:00,39.4,40.5,40.9,12.1,32,16.71,28.913,483,2.8,214.4,4.6,0,0.00,0.00,0.00,63.302,47.318
10min,FGNet,alpine,42.04,15JAN2021:13:20:00,39.8,40.8,41.3,12.5,32,16.71,28.922,486,3.9,232.1,6.5,0,0.00,0.00,0.00,61.61,48.776
10min,FGNet,alpine,42.04,15JAN2021:13:30:00,40.1,41.6,42.1,12.7,32,16.7,28.9544,482,3.2,209.5,4.8,0,0.00,0.00,0.00,60.908,50.342
10min,FGNet,alpine,42.04,15JAN2021:13:40:00,40.3,40.9,41.6,12.4,32,16.72,28.94,456,2.4,204.6,3.9,0,0.00,0.00,0.00,61.106,46.3586
10min,FGNet,alpine,42.04,15JAN2021:13:50:00,40.4,41.7,42.1,12.7,32,16.72,29.0336,442,3.8,230.7,5.7,0,0.00,0.00,0.00,61.88,49.37
10min,FGNet,alpine,42.04,15JAN2021:14:00:00,40.9,41.9,42.3,12.8,31,16.73,28.9166,447,3.3,254.9,6.4,0,0.00,0.00,0.00,59.972,47.858
10min,FGNet,alpine,42.04,15JAN2021:14:10:00,41.6,42.5,43.3,12.9,31,16.72,28.9796,437,2.8,208,5.3,0,0.00,0.00,0.00,59.648,47.318
10min,FGNet,alpine,42.04,15JAN2021:14:20:00,41.0,41.8,42.2,12.9,31,16.72,28.985,316,3.3,271,4.9,0,0.00,0.00,0.00,55.742,47.012
10min,FGNet,alpine,42.04,15JAN2021:14:30:00,41.6,42.6,42.8,13.1,31,16.7,28.9616,336,2.6,196.7,4.9,0,0.00,0.00,0.00,57.686,49.478
10min,FGNet,alpine,42.04,15JAN2021:14:40:00,42.1,42.9,43.0,13.0,30,16.75,28.9814,395,3.4,171.3,6.0,0,0.00,0.00,0.00,56.03,50.324
10min,FGNet,alpine,42.04,15JAN2021:14:50:00,41.7,42.2,42.7,12.8,30,16.71,28.994,380,4.1,211.8,6.4,0,0.00,0.00,0.00,54.176,44.3822
10min,FGNet,alpine,42.04,15JAN2021:15:00:00,41.7,42.6,43.0,12.9,31,16.73,29.0336,345,2.6,236.1,5.1,0,0.00,0.00,0.00,54.086,43.2698
10min,FGNet,alpine,42.04,15JAN2021:15:10:00,41.7,42.5,43.0,12.9,30,16.75,29.039,324,3.4,230.3,5.1,0,0.00,0.00,0.00,45.9428,44.8736
10min,FGNet,alpine,42.04,15JAN2021:15:20:00,41.9,43.1,43.4,13.2,31,16.73,29.03,303,3.6,247.4,4.9,0,0.00,0.00,0.00,46.652,45.6296
10min,FGNet,alpine,42.04,15JAN2021:15:30:00,41.8,42.8,43.1,13.2,31,16.74,28.9994,280,3.4,227.5,5.1,0,0.00,0.00,0.00,49.766,48.47
10min,FGNet,alpine,42.04,15JAN2021:15:40:00,42.1,42.9,42.9,13.3,30,16.75,29.0804,251,2.9,226.9,4.8,0,0.00,0.00,0.00,46.976,46.994
10min,FGNet,alpine,42.04,15JAN2021:15:50:00,42.2,42.4,42.4,13.2,30,16.75,29.1074,231,3.2,166,4.4,0,0.00,0.00,0.00,46.904,47.264
10min,FGNet,alpine,42.04,15JAN2021:16:00:00,42.1,42.3,42.4,12.9,30,16.78,29.1236,200,3.5,239,5.3,0,0.00,0.00,0.00,46.2668,47.678
10min,FGNet,alpine,42.04,15JAN2021:16:10:00,42.2,42.5,42.5,13.2,30,16.76,29.048,175,2.5,186.6,5.1,0,0.00,0.00,0.00,44.411,46.1462
10min,FGNet,alpine,42.04,15JAN2021:16:20:00,42.6,42.3,42.7,12.9,29,16.77,29.129,140,2.5,225.8,4.8,0,0.00,0.00,0.00,42.0746,42.512
10min,FGNet,alpine,42.04,15JAN2021:16:30:00,41.8,41.8,41.7,12.7,30,16.76,29.156,116,2.2,254.1,4.4,0,0.00,0.00,0.00,41.2196,41.7164
10min,FGNet,alpine,42.04,15JAN2021:16:40:00,41.6,41.3,41.3,12.5,30,16.77,29.1074,69,1.3,189.6,2.6,0,0.00,0.00,0.00,39.6374,40.6256
10min,FGNet,alpine,42.04,15JAN2021:16:50:00,41.1,41.0,40.7,12.3,30,16.78,29.2064,62,1.6,246.6,2.6,0,0.00,0.00,0.00,37.904,39.5582
10min,FGNet,alpine,42.04,15JAN2021:17:00:00,40.8,40.4,40.0,12.5,31,16.78,29.1416,52,0.8,221.3,2.6,0,0.00,0.00,0.00,37.1012,40.5104
10min,FGNet,alpine,42.04,15JAN2021:17:10:00,40.2,39.0,38.7,13.0,32,16.78,29.1326,27,0.3,127.8,1.7,0,0.00,0.00,0.00,35.7296,37.1606
10min,FGNet,alpine,42.04,15JAN2021:17:20:00,39.4,37.8,37.5,13.0,34,16.76,29.192,10,1.8,142,3.5,0,0.00,0.00,0.00,34.3814,35.6342
10min,FGNet,alpine,42.04,15JAN2021:17:30:00,38.3,36.6,36.3,13.9,36,16.8,29.174,2,0.9,76.71,2.6,0,0.00,0.00,0.00,33.8738,35.0672
10min,FGNet,alpine,42.04,15JAN2021:17:40:00,37.2,36.1,35.6,14.5,39,16.78,29.1956,1,2.8,54.83,3.9,0,0.00,0.00,0.00,34.0538,35.1698
10min,FGNet,alpine,42.04,15JAN2021:17:50:00,36.7,35.4,35.0,15.0,41,16.8,29.192,0,1.4,61.96,3.1,0,0.00,0.00,0.00,31.8272,33.1178
10min,FGNet,alpine,42.04,15JAN2021:18:00:00,35.3,33.9,33.6,14.9,43,16.82,29.246,0,1.0,240.6,3.3,0,0.00,0.00,0.00,28.7366,30.5816
10min,FGNet,alpine,42.04,15JAN2021:18:10:00,34.4,33.1,32.8,15.1,45,16.81,29.2496,0,1.3,106.1,3.0,0,0.00,0.00,0.00,29.4674,31.1918
10min,FGNet,alpine,42.04,15JAN2021:18:20:00,33.5,32.4,32.0,15.8,48,16.81,29.2496,0,1.7,52.21,2.8,0,0.00,0.00,0.00,30.8012,31.8398
10min,FGNet,alpine,42.04,15JAN2021:18:30:00,33.0,32.5,32.1,16.5,50,16.83,29.2586,0,1.6,42.58,2.6,0,0.00,0.00,0.00,30.2522,31.2422
10min,FGNet,alpine,42.04,15JAN2021:18:40:00,32.9,32.3,32.1,16.6,51,16.84,29.2244,0,1.5,101,2.6,0,0.00,0.00,0.00,30.4682,31.3502
10min,FGNet,alpine,42.04,15JAN2021:18:50:00,33.1,32.6,32.2,16.9,51,16.83,29.2316,0,3.1,45.06,4.6,0,0.00,0.00,0.00,31.3898,32.7218
10min,FGNet,alpine,42.04,15JAN2021:19:00:00,33.7,33.0,32.4,17.6,51,16.84,29.2676,0,3.0,84.6,4.9,0,0.00,0.00,0.00,30.4682,31.8002
10min,FGNet,alpine,42.04,15JAN2021:19:10:00,33.3,32.3,32.0,17.8,52,16.86,29.2316,0,0.5,235.8,1.9,0,0.00,0.00,0.00,30.587,31.2818
10min,FGNet,alpine,42.04,15JAN2021:19:20:00,33.1,32.2,31.8,17.9,53,16.83,29.2946,0,1.8,110.8,3.3,0,0.00,0.00,0.00,27.8186,29.8616
10min,FGNet,alpine,42.04,15JAN2021:19:30:00,32.7,31.3,30.9,17.8,54,16.85,29.2694,0,1.6,71.44,3.7,0,0.00,0.00,0.00,28.8806,29.8418
10min,FGNet,alpine,42.04,15JAN2021:19:40:00,32.4,31.0,30.6,17.6,54,16.83,29.2946,0,1.7,76.33,3.1,0,0.00,0.00,0.00,28.292,30.6464
10min,FGNet,alpine,42.04,15JAN2021:19:50:00,31.7,30.4,29.9,17.9,56,16.83,29.3036,0,1.0,224.4,2.3,0,0.00,0.00,0.00,26.1662,28.787
10min,FGNet,alpine,42.04,15JAN2021:20:00:00,31.0,29.9,29.5,17.9,58,16.84,29.381,0,1.7,81.7,3.3,0,0.00,0.00,0.00,27.9842,29.4872
10min,FGNet,alpine,42.04,15JAN2021:20:10:00,30.9,30.4,29.9,18.0,58,16.82,29.309,0,2.1,50.67,3.3,0,0.00,0.00,0.00,28.202,29.1452
10min,FGNet,alpine,42.04,15JAN2021:20:20:00,30.7,30.0,29.6,18.2,59,16.84,29.3036,0,1.1,74.06,2.3,0,0.00,0.00,0.00,27.4838,28.8698
10min,FGNet,alpine,42.04,15JAN2021:20:30:00,30.9,30.1,29.8,18.4,59,16.85,29.3036,0,1.4,48.2,2.3,0,0.00,0.00,0.00,27.572,29.1452
10min,FGNet,alpine,42.04,15JAN2021:20:40:00,30.8,30.2,29.8,18.6,60,16.88,29.3486,0,1.0,65.54,2.4,0,0.00,0.00,0.00,28.6844,29.6168
10min,FGNet,alpine,42.04,15JAN2021:20:50:00,30.8,30.3,29.9,18.8,61,16.87,29.3504,0,1.0,197.2,2.4,0,0.00,0.00,0.00,29.2442,30.2054
10min,FGNet,alpine,42.04,15JAN2021:21:00:00,31.6,30.9,30.6,19.4,60,16.87,29.3504,0,1.7,97.5,3.0,0,0.00,0.00,0.00,28.9292,30.2432
10min,FGNet,alpine,42.04,15JAN2021:21:10:00,31.6,30.8,30.3,19.6,61,16.89,29.3666,0,0.2,165,1.5,0,0.00,0.00,0.00,29.1164,29.813
10min,FGNet,alpine,42.04,15JAN2021:21:20:00,31.5,30.8,30.5,19.4,60,16.86,29.3846,0,0.5,103.9,2.3,0,0.00,0.00,0.00,29.93,31.3412
10min,FGNet,alpine,42.04,15JAN2021:21:30:00,31.9,31.3,30.9,19.6,60,16.87,29.417,0,1.8,107.5,3.3,0,0.00,0.00,0.00,29.1452,30.3026
10min,FGNet,alpine,42.04,15JAN2021:21:40:00,31.8,30.9,30.5,19.7,60,16.88,29.3666,0,0.7,145.9,2.3,0,0.00,0.00,0.00,29.381,30.4106
10min,FGNet,alpine,42.04,15JAN2021:21:50:00,32.3,31.2,30.8,20.0,60,16.89,29.3846,0,2.3,63.15,3.5,0,0.00,0.00,0.00,29.498,30.3818
10min,FGNet,alpine,42.04,15JAN2021:22:00:00,32.1,31.1,30.6,20.0,61,16.89,29.4026,0,0.8,151,2.3,0,0.00,0.00,0.00,29.7734,30.5384
10min,FGNet,alpine,42.04,15JAN2021:22:10:00,31.9,31.0,30.6,20.1,61,16.87,29.3486,0,0.6,116.2,2.3,0,0.00,0.00,0.00,28.3892,29.6366
10min,FGNet,alpine,42.04,15JAN2021:22:20:00,31.6,31.0,30.7,20.1,62,16.88,29.3936,0,2.1,73.69,3.9,0,0.00,0.00,0.00,31.145,31.7336
10min,FGNet,alpine,42.04,15JAN2021:22:30:00,32.3,31.6,31.1,20.0,60,16.86,29.4764,0,2.2,229.3,3.1,0,0.00,0.00,0.00,30.803,31.5176
10min,FGNet,alpine,42.04,15JAN2021:22:40:00,32.4,31.3,30.8,20.4,61,16.86,29.4116,0,0.9,102.4,3.5,0,0.00,0.00,0.00,30.578,31.1756
10min,FGNet,alpine,42.04,15JAN2021:22:50:00,32.4,31.7,31.3,20.1,60,16.92,29.462,0,1.3,171.3,3.1,0,0.00,0.00,0.00,31.6544,32.2232
10min,FGNet,alpine,42.04,15JAN2021:23:00:00,33.1,32.0,31.6,20.1,58,16.9,29.48,0,0.6,30.37,2.3,0,0.00,0.00,0.00,31.028,31.361
10min,FGNet,alpine,42.04,15JAN2021:23:10:00,32.8,32.2,31.9,20.3,60,16.9,29.444,0,1.6,109,4.0,0,0.00,0.00,0.00,32.2124,32.5076
10min,FGNet,alpine,42.04,15JAN2021:23:20:00,33.1,32.4,32.0,20.2,59,16.9,29.4746,0,1.8,266.7,3.3,0,0.00,0.00,0.00,32.153,32.6138
10min,FGNet,alpine,42.04,15JAN2021:23:30:00,33.3,32.9,32.5,20.4,58,16.93,29.435,0,2.5,138,4.2,0,0.00,0.00,0.00,33.728,34.178
10min,FGNet,alpine,42.04,15JAN2021:23:40:00,34.4,33.7,33.2,20.2,56,16.94,29.426,0,2.7,186.6,4.4,0,0.00,0.00,0.00,33.7838,33.971
10min,FGNet,alpine,42.04,15JAN2021:23:50:00,34.3,34.2,33.9,20.5,57,16.94,29.4836,0,3.8,151.6,6.2,0,0.00,0.00,0.00,34.8188,35.2112
10min,FGNet,genola,42.05,15JAN2021:00:00:00,26.4,25.4,23.9,10.0,49,9.09,35.222,0,4.2,122,5.7,0,0.00,0.00,0.00,22.8002,24.6434
10min,FGNet,genola,42.05,15JAN2021:00:10:00,27.8,27.6,25.8,10.0,46,9.14,35.222,0,5.3,102.6,6.4,0,0.00,0.00,0.00,25.6388,27.4064
10min,FGNet,genola,42.05,15JAN2021:00:20:00,29.9,29.6,27.1,9.7,42,9.05,35.2202,0,3.3,86.8,4.6,0,0.00,0.00,0.00,24.5624,27.8204
10min,FGNet,genola,42.05,15JAN2021:00:30:00,29.7,28.1,25.7,9.6,42,9.09,35.2184,0,1.2,166.3,3.0,0,0.00,0.00,0.00,21.0254,22.8002
10min,FGNet,genola,42.05,15JAN2021:00:40:00,26.0,25.2,24.3,10.0,50,9.14,35.2184,0,2.1,296.5,3.5,0,0.00,0.00,0.00,20.3756,22.8812
10min,FGNet,genola,42.05,15JAN2021:00:50:00,25.6,25.2,24.2,10.8,53,9.15,35.2076,0,0.3,180.1,1.9,0,0.00,0.00,0.00,18.7142,21.0272
10min,FGNet,genola,42.05,15JAN2021:01:00:00,24.7,24.2,23.6,10.9,55,9.08,35.1986,0,0.3,191,1.9,0,0.00,0.00,0.00,19.4432,22.0406
10min,FGNet,genola,42.05,15JAN2021:01:10:00,24.0,23.7,22.5,11.6,59,9.11,35.1878,0,0.0,98,0.0,0,0.00,0.00,0.00,18.4226,21.245
10min,FGNet,genola,42.05,15JAN2021:01:20:00,23.5,23.6,21.9,12.2,61,9.11,35.186,0,1.6,244.8,4.0,0,0.00,0.00,0.00,20.6276,21.722
10min,FGNet,genola,42.05,15JAN2021:01:30:00,24.1,23.7,21.4,11.3,58,9.07,35.186,0,3.2,321.6,4.0,0,0.00,0.00,0.00,19.9778,21.4394
10min,FGNet,genola,42.05,15JAN2021:01:40:00,24.7,24.6,23.3,11.5,57,9.14,35.1824,0,4.8,218.3,5.7,0,0.00,0.00,0.00,22.568,23.4932
10min,FGNet,genola,42.05,15JAN2021:01:50:00,26.1,25.8,23.4,11.9,54,9.18,35.1752,0,5.0,15.41,5.7,0,0.00,0.00,0.00,21.722,23.081
10min,FGNet,genola,42.05,15JAN2021:02:00:00,26.4,25.8,23.8,12.0,54,9.11,35.1626,0,3.3,302.8,4.6,0,0.00,0.00,0.00,20.1506,22.046
10min,FGNet,genola,42.05,15JAN2021:02:10:00,26.4,26.0,24.3,11.8,53,9.12,35.141,0,0.6,130.3,2.6,0,0.00,0.00,0.00,21.4592,23.7632
10min,FGNet,genola,42.05,15JAN2021:02:20:00,26.3,26.1,24.1,11.8,54,9.12,35.1374,0,0.0,114.9,0.0,0,0.00,0.00,0.00,19.7744,22.1252
10min,FGNet,genola,42.05,15JAN2021:02:30:00,25.5,24.5,21.9,11.5,55,9.08,35.132,0,0.0,222.3,0.0,0,0.00,0.00,0.00,18.3002,20.2226
10min,FGNet,genola,42.05,15JAN2021:02:40:00,24.4,23.7,22.3,11.3,57,9.2,35.132,0,0.0,167.5,0.0,0,0.00,0.00,0.00,18.0554,20.1848
10min,FGNet,genola,42.05,15JAN2021:02:50:00,24.4,24.2,21.5,11.4,57,9.13,35.132,0,2.1,157.8,3.3,0,0.00,0.00,0.00,21.3224,22.8938
10min,FGNet,genola,42.05,15JAN2021:03:00:00,26.0,25.3,22.5,11.6,54,9.1,35.1284,0,2.6,148.9,3.1,0,0.00,0.00,0.00,18.5936,20.5538
10min,FGNet,genola,42.05,15JAN2021:03:10:00,23.8,23.2,22.0,11.3,59,9.16,35.1176,0,2.1,218.9,3.0,0,0.00,0.00,0.00,17.69,19.9058
10min,FGNet,genola,42.05,15JAN2021:03:20:00,23.0,22.0,20.3,11.0,59,9.18,35.1032,0,0.1,228.8,1.7,0,0.00,0.00,0.00,18.4316,20.1506
10min,FGNet,genola,42.05,15JAN2021:03:30:00,22.9,22.2,20.3,11.2,60,9.13,35.096,0,1.8,127.2,3.7,0,0.00,0.00,0.00,15.062,18.2462
10min,FGNet,genola,42.05,15JAN2021:03:40:00,21.0,20.2,19.2,10.9,64,9.11,35.0924,0,1.0,253.1,3.0,0,0.00,0.00,0.00,17.8556,18.9248
10min,FGNet,genola,42.05,15JAN2021:03:50:00,21.9,22.6,21.3,11.6,64,9.15,35.0852,0,2.3,81.9,3.5,0,0.00,0.00,0.00,20.8418,22.4798
10min,FGNet,genola,42.05,15JAN2021:04:00:00,24.3,24.4,22.9,12.0,59,9.16,35.069,0,4.2,92,4.9,0,0.00,0.00,0.00,21.3728,23.468
10min,FGNet,genola,42.05,15JAN2021:04:10:00,24.9,24.6,23.4,11.9,57,8.82,34.943,0,3.3,102.5,3.7,0,0.00,0.00,0.00,21.1928,22.9874
10min,FGNet,genola,42.05,15JAN2021:04:20:00,24.9,24.6,23.0,11.8,57,9.14,35.042,0,2.9,88.8,3.7,0,0.00,0.00,0.00,20.2982,22.2314
10min,FGNet,genola,42.05,15JAN2021:04:30:00,25.2,25.1,22.9,11.8,56,9.16,35.042,0,1.6,38.97,3.0,0,0.00,0.00,0.00,19.949,22.7426
10min,FGNet,genola,42.05,15JAN2021:04:40:00,25.0,24.0,22.2,11.5,56,9.16,35.0384,0,1.5,180.3,3.0,0,0.00,0.00,0.00,20.5376,22.4186
10min,FGNet,genola,42.05,15JAN2021:04:50:00,25.0,24.7,23.1,11.6,56,9.13,35.0258,0,2.8,94.2,3.9,0,0.00,0.00,0.00,20.0174,21.6914
10min,FGNet,genola,42.05,15JAN2021:05:00:00,24.6,23.3,21.7,11.5,57,9.04,34.9628,0,3.2,153.3,4.2,0,0.00,0.00,0.00,18.1652,20.3936
10min,FGNet,genola,42.05,15JAN2021:05:10:00,22.0,21.3,20.2,11.2,63,9.16,35.0078,0,2.9,114.5,4.0,0,0.00,0.00,0.00,18.8852,20.2316
10min,FGNet,genola,42.05,15JAN2021:05:20:00,22.2,22.1,20.2,11.5,63,9.04,34.9556,0,1.3,81,3.5,0,0.00,0.00,0.00,18.2804,19.4576
10min,FGNet,genola,42.05,15JAN2021:05:30:00,21.9,21.3,19.8,11.3,63,8.98,34.9538,0,0.8,153.9,2.8,0,0.00,0.00,0.00,17.7782,19.2992
10min,FGNet,genola,42.05,15JAN2021:05:40:00,21.7,20.9,19.5,11.4,64,8.96,34.9484,0,1.4,94,2.8,0,0.00,0.00,0.00,16.79,19.3424
10min,FGNet,genola,42.05,15JAN2021:05:50:00,21.7,21.3,20.1,11.2,64,9.13,34.9862,0,3.3,141.9,4.2,0,0.00,0.00,0.00,17.8016,19.7924
10min,FGNet,genola,42.05,15JAN2021:06:00:00,21.2,20.6,19.8,11.0,64,9.17,34.9718,0,1.2,205.4,2.8,0,0.00,0.00,0.00,17.24,18.4208
10min,FGNet,genola,42.05,15JAN2021:06:10:00,21.2,20.9,19.9,11.1,65,9.22,34.9574,0,2.8,327.7,4.2,0,0.00,0.00,0.00,17.9888,19.148
10min,FGNet,genola,42.05,15JAN2021:06:20:00,22.0,21.7,20.4,11.0,62,8.98,34.9034,0,2.3,80.4,3.7,0,0.00,0.00,0.00,15.53,19.139